www.pogodaiklimat.ru

Погода и климат >> Архив погоды >> Франция >> Орлеан


АРХИВ ПОГОДЫ в Орлеане

Время (UTC), дата Ветер
(напр.,м/с)
 
Видим.   Явления Облачность Т
(С)
Тd
(С)
f
(%)
Тe
(С)
Тes
(С)
Комфортность P
(гПа)
Po
(гПа)
Тmin
(С)
Tmax
(С)
R
(мм)
R24
(мм)
S
(см)
07 9.09 ЮВ 1 55 км 9/9
[]
+9.2 +6.3 82 +9 +9 прохладно 1017.3 1002.1
08 9.09 Ю 2 50 км 10/10
[]
+12.9 +6.2 64 +12 +12 по сезону 1016.9 1001.9
09 9.09 Ю 3
{20}
50 км н/о +15.1 +5.9 54 +15 +15 по сезону 1016.7 1001.8 0
10 9.09 ЮЗ 3 60 км 9/9
[]
+17.3 +5.9 47 +17 +18 прохладно 1016.0 1001.3
11 9.09 ЮЗ 3 60 км н/о +18.6 +4.4 39 +19 +19 по сезону 1015.3 1000.6
12 9.09 ЮЗ 3
{10}
60 км 9/9 1500 м
[]
+19.6 +4.9 38 +21 +22 комфорт 1014.4 999.8 0
13 9.09 Ю 3 50 км 9/9 1500 м
[]
+19.5 +4.4 37 +20 +21 по сезону 1013.8 999.2
14 9.09 ЮЗ 3 60 км 9/9 1500 м
[]
+19.2 +4.1 37 +20 +21 по сезону 1013.3 998.7
15 9.09 ЮЗ 3
{9}
60 км 10/10 1500 м
[]
+18.7 +3.7 37 +19 +19 по сезону 1012.8 998.2 0
16 9.09 Ю 2 60 км 10/10 1500 м
[]
+18.9 +3.5 36 +20 +20 тепло 1012.4 997.8
17 9.09 Ю 2 60 км 10/10 2000 м
[]
+18.6 +3.2 36 +19 +19 по сезону 1012.2 997.6
18 9.09 Ю 2
{6}
60 км 10/0 2000 м
[]
+17.7 +3.6 39 +18 +18 по сезону 1012.3 997.6 +7.8 +20.0 0
19 9.09 ЮЗ 2 60 км 10/10 2000 м
[]
+16.9 +3.6 41 +18 +18 тепло 1012.7 998.0
20 9.09 СЗ 2 15 км слаб. дождь 10/10 1500 м
[]
+11.9 +8.0 77 +11 +11 прохладно 1013.7 998.7 1
21 9.09 С 2
{4}
60 км 10/0 2000 м
[]
+12.0 +8.8 81 +11 +11 прохладно 1013.0 998.0 2 0
22 9.09 СЗ 1 60 км 10/10 2000 м
[]
+11.9 +8.7 81 +13 +13 тепло 1013.2 998.2
23 9.09 В 1 60 км 10/10 1500 м
[]
+11.8 +8.5 80 +13 +13 тепло 1013.1 998.1
00 10.09 В 1
{3}
60 км 10/0 2000 м
[]
+11.6 +9.0 84 +11 +11 по сезону 1013.1 998.1 0
01 10.09 В 1 60 км 10/10 2000 м
[]
+11.4 +8.6 83 +11 +11 тепло 1013.2 998.2
02 10.09 СВ 1 60 км 10/10 2000 м
[]
+10.7 +8.8 88 +10 +10 по сезону 1013.3 998.3
03 10.09 СВ 2
{4}
60 км 10/0
[]
+10.7 +8.6 87 +10 +10 по сезону 1013.5 998.5 0
04 10.09 СВ 2 60 км 10/10 2000 м
[]
+10.6 +8.2 85 +10 +10 тепло 1013.7 998.7
05 10.09 СВ 2 60 км 10/10
[]
+10.4 +8.2 86 +9 +9 по сезону 1014.3 999.2
06 10.09 СВ 2
{6}
50 км 8/0 2000 м
[]
+10.6 +8.0 84 +9 +9 по сезону 1015.4 1000.3 +10.2 +17.7 2 0
07 10.09 СВ 3 45 км н/о +12.2 +8.5 78 +11 +11 по сезону 1015.8 1000.8
08 10.09 СВ 3 60 км н/о +14.6 +9.2 70 +14 +14 по сезону 1016.4 1001.5
09 10.09 СВ 3
{7}
60 км н/о +17.0 +8.7 58 +17 +17 тепло 1017.0 1002.2 0
10 10.09 СВ 2 60 км н/о +18.9 +7.6 48 +20 +20 по сезону 1017.6 1002.9
11 10.09 СВ 2 60 км н/о +19.9 +6.9 43 +21 +21 комфорт 1017.8 1003.2
12 10.09 СВ 2
{8}
55 км н/о +21.1 +5.4 36 +22 +22 комфорт 1017.9 1003.3 0
13 10.09 СВ 2 55 км н/о +21.7 +4.7 33 +22 +22 комфорт 1017.8 1003.2
14 10.09 С 3 60 км н/о +22.1 +5.1 33 +22 +22 комфорт 1017.7 1003.2
15 10.09 С 3
{9}
50 км н/о +22.4 +3.5 29 +22 +22 комфорт 1017.7 1003.2 0
16 10.09 СВ 3 35 км н/о +21.8 +3.4 30 +22 +22 комфорт 1018.1 1003.5
17 10.09 С 2 55 км н/о +21.5 +4.5 33 +22 +22 комфорт 1018.5 1003.9
18 10.09 С 2
{7}
60 км н/о +19.0 +4.3 38 +20 +20 тепло 1019.5 1004.8 +10.6 +22.9 0
19 10.09 С 1 60 км н/о +16.0 +5.0 48 +17 +17 тепло 1020.3 1005.4
20 10.09 С 1 60 км н/о +13.8 +4.6 54 +15 +15 по сезону 1021.0 1006.0
21 10.09 С 1
{1}
60 км н/о +11.8 +6.3 69 +13 +13 по сезону 1021.8 1006.7 0
22 10.09 С 2 60 км н/о +11.4 +5.5 67 +11 +11 по сезону 1022.2 1007.1
23 10.09 С 2 60 км н/о +11.2 +6.5 73 +10 +10 по сезону 1022.6 1007.4
00 11.09 С 2
{5}
60 км н/о +10.9 +7.0 77 +10 +10 по сезону 1023.0 1007.8 0
01 11.09 С 1 60 км н/о +9.0 +5.6 79 +8 +8 по сезону 1023.2 1007.9
02 11.09 С 1 50 км н/о +8.9 +6.7 86 +8 +8 по сезону 1023.2 1007.9
03 11.09 С 1
{3}
45 км 9/0
[]
+8.9 +7.5 91 +8 +8 прохладно 1023.3 1008.0 0
04 11.09 С 1 30 км 10/10
[]
+10.2 +8.6 90 +10 +10 тепло 1023.7 1008.5
05 11.09 СЗ 1 30 км 10/10
[]
+10.1 +8.5 90 +10 +10 по сезону 1024.1 1008.9
06 11.09 штиль 0
{2}
19 км 10/0
[]
+10.6 +9.2 91 +10 +10 по сезону 1024.7 1009.5 +8.5 +18.9 0
07 11.09 З 1 16 км 10/10
[]
+12.0 +10.1 88 +13 +13 по сезону 1025.2 1010.1
08 11.09 ЮЗ 1 30 км 10/10
[]
+14.3 +10.7 79 +15 +15 по сезону 1025.5 1010.5
09 11.09 ЮЗ 1
{2}
40 км 10/0
[]
+16.8 +11.5 71 +18 +18 тепло 1025.8 1010.9 0
10 11.09 З 2 60 км н/о +19.3 +10.8 58 +21 +21 комфорт 1026.2 1011.4
11 11.09 ЮЗ 2 55 км 10/10
[]
+20.2 +9.7 51 +22 +22 комфорт 1025.7 1011.0
12 11.09 ЮЗ 3
{9}
50 км н/о +21.8 +9.3 45 +23 +23 комфорт 1025.5 1010.9 0
13 11.09 З 3 45 км н/о +22.3 +9.8 45 +24 +24 комфорт 1025.4 1010.8
14 11.09 З 4 40 км н/о +22.9 +8.9 41 +24 +24 комфорт 1025.4 1010.8
15 11.09 З 3
{10}
18 км н/о +23.1 +8.8 40 +24 +24 комфорт 1025.3 1010.7 0
16 11.09 З 2 60 км н/о +23.0 +6.7 35 +24 +24 комфорт 1025.6 1011.0
17 11.09 З 2 60 км н/о +22.5 +7.5 38 +23 +23 комфорт 1025.8 1011.2
18 11.09 З 2
{7}
60 км н/о +20.5 +8.2 45 +23 +23 комфорт 1025.9 1011.2 +10.6 +23.6 0
19 11.09 З 2 60 км н/о +17.1 +8.2 56 +18 +18 тепло 1026.8 1011.9
20 11.09 З 2 60 км н/о +15.5 +8.5 63 +16 +16 тепло 1027.3 1012.3
21 11.09 З 2
{4}
60 км н/о +14.4 +8.3 67 +14 +14 по сезону 1028.0 1012.9 0
22 11.09 З 2 60 км н/о +14.2 +8.4 68 +14 +14 тепло 1028.2 1013.1
23 11.09 ЮЗ 1 60 км н/о +14.0 +8.4 69 +15 +15 тепло 1028.5 1013.4
00 12.09 ЮЗ 1
{2}
60 км н/о +13.4 +8.2 71 +14 +14 тепло 1028.9 1013.8 0
01 12.09 З 1 60 км н/о +12.9 +8.4 74 +14 +14 тепло 1029.3 1014.1
02 12.09 З 1 60 км н/о +11.2 +8.4 83 +11 +11 по сезону 1029.3 1014.1
03 12.09 З 1
{3}
60 км н/о +11.9 +9.8 87 +13 +13 тепло 1029.2 1014.0 0
04 12.09 штиль 0 55 км н/о +12.1 +10.3 89 +12 +12 тепло 1029.4 1014.2
05 12.09 ЮЗ 1 9000 м н/о +11.2 +9.9 92 +12 +12 тепло 1029.8 1014.6
06 12.09 ЮЗ 1
{2}
50 км н/о +11.7 +10.6 93 +12 +12 тепло 1030.3 1015.1 +11.0 +20.4 0
07 12.09 З 1 19 км н/о +14.7 +12.9 89 +15 +15 тепло 1030.9 1015.8
08 12.09 Ю 1 19 км н/о +16.7 +14.2 85 +18 +18 тепло 1031.2 1016.2
09 12.09 Ю 1
{4}
60 км н/о +20.4 +14.5 69 +24 +24 комфорт 1031.5 1016.7 0
10 12.09 З 2 60 км н/о +22.1 +15.0 64 +26 +26 душно 1031.7 1017.0
11 12.09 З 2 60 км 9/9 900 м
[]
+23.4 +14.9 59 +27 +29 душно 1031.3 1016.7
12 12.09 З 1
{5}
60 км 9/9 1000 м
[]
+24.3 +15.0 56 +27 +28 жарко 1031.1 1016.5 0
13 12.09 СЗ 2 60 км 9/9 1170 м
[]
+24.4 +14.5 54 +27 +28 жарко 1030.8 1016.2
14 12.09 ЮЗ 2 60 км н/о +25.6 +14.4 50 +28 +28 жарко 1030.6 1016.1
15 12.09 СЗ 1
{6}
55 км 9/9 1000 м
[]
+25.4 +14.8 52 +28 +29 жарко 1030.1 1015.6 0
16 12.09 СЗ 1 60 км н/о +25.1 +14.5 52 +28 +28 жарко 1029.9 1015.4
17 12.09 СЗ 2 60 км н/о +24.4 +14.8 55 +27 +27 жарко 1030.3 1015.7
18 12.09 С 3
{4}
60 км н/о +22.5 +14.6 61 +26 +26 жарко 1030.5 1015.8 +11.8 +26.8 0
19 12.09 С 2 60 км н/о +20.3 +14.4 69 +24 +24 комфорт 1030.8 1016.0
20 12.09 С 2 60 км н/о +18.6 +14.5 77 +20 +20 тепло 1031.2 1016.3
21 12.09 С 1
{5}
60 км н/о +17.6 +14.3 81 +19 +19 тепло 1031.5 1016.6 0
22 12.09 С 1 60 км н/о +16.4 +13.9 85 +17 +17 тепло 1031.8 1016.8
23 12.09 С 2 60 км н/о +16.9 +14.7 87 +17 +17 тепло 1031.9 1016.9
00 13.09 С 2
{5}
60 км н/о +16.4 +14.9 91 +17 +17 тепло 1031.8 1016.8 0
01 13.09 СВ 2 60 км н/о +15.2 +14.1 93 +15 +15 тепло 1031.5 1016.5
02 13.09 СВ 1 50 км н/о +14.3 +13.7 96 +15 +15 тепло 1031.7 1016.6
03 13.09 СВ 1
{2}
10 км н/о +14.0 +13.5 97 +15 +15 тепло 1031.5 1016.4 0
04 13.09 С 1 2100 м дымка н/о +12.4 +11.8 96 +12 +12 тепло 1031.8 1016.6
05 13.09 С 1 800 м туман ?/? +13.2 +13.2 100 +13 +13 тепло 1032.2 1017.0
06 13.09 СВ 1
{3}
900 м туман ?/? +12.9 +12.9 100 +13 +13 тепло 1032.3 1017.1 +12.0 +22.5 0
07 13.09 СВ 2 15 км н/о +15.2 +14.9 98 +15 +15 тепло 1032.9 1017.8 0.2
08 13.09 СВ 3 30 км 9/9 450 м
[]
+18.7 +15.2 80 +20 +20 тепло 1033.1 1018.2
09 13.09 СВ 3
{9}
60 км 9/9 300 м
[]
+19.4 +15.3 77 +21 +22 комфорт 1032.9 1018.1 0.2 0
10 13.09 СВ 3 60 км н/о +21.2 +15.1 68 +24 +24 комфорт 1032.8 1018.0
11 13.09 СВ 2 50 км н/о +22.1 +15.2 65 +26 +26 душно 1032.0 1017.3
12 13.09 СВ 2
{7}
55 км н/о +24.0 +15.2 58 +27 +27 жарко 1031.3 1016.7 0
13 13.09 СВ 2 50 км н/о +25.6 +15.6 54 +29 +29 душно 1031.0 1016.5
14 13.09 СВ 2 19 км н/о +25.5 +14.6 51 +28 +28 жарко 1030.7 1016.2
15 13.09 СВ 2
{8}
60 км н/о +25.9 +14.0 48 +28 +28 жарко 1030.1 1015.6 0
16 13.09 СВ 3 40 км н/о +25.4 +13.6 48 +28 +28 жарко 1030.0 1015.5
17 13.09 СВ 4 45 км н/о +24.3 +13.8 52 +27 +27 жарко 1030.0 1015.4
18 13.09 СВ 3
{9}
55 км н/о +22.0 +13.6 59 +25 +25 комфорт 1030.1 1015.4 +12.9 +26.2 0
19 13.09 СВ 3 55 км н/о +19.7 +13.6 68 +22 +22 комфорт 1030.8 1016.0
20 13.09 СВ 2 60 км н/о +17.9 +13.2 74 +18 +18 тепло 1031.0 1016.1
21 13.09 СВ 2
{6}
60 км н/о +17.4 +13.5 78 +18 +18 тепло 1031.1 1016.2 0
22 13.09 СВ 2 60 км н/о +15.7 +12.6 82 +16 +16 тепло 1031.1 1016.1
23 13.09 СВ 2 60 км н/о +15.7 +13.2 85 +16 +16 тепло 1030.7 1015.7
00 14.09 СВ 3
{7}
60 км н/о +14.8 +12.8 88 +14 +14 тепло 1030.7 1015.6 0
01 14.09 СВ 2 50 км н/о +14.0 +12.6 91 +14 +14 тепло 1031.0 1015.9
02 14.09 С 2 35 км н/о +13.9 +12.8 93 +13 +13 тепло 1030.5 1015.4
03 14.09 СВ 2
{5}
19 км н/о +13.8 +13.0 95 +13 +13 тепло 1030.1 1015.0 0
04 14.09 СВ 3 12 км н/о +13.9 +13.4 97 +13 +13 тепло 1029.8 1014.7
05 14.09 СВ 3 9000 м н/о +14.1 +13.5 96 +13 +13 тепло 1029.7 1014.6
06 14.09 СВ 2
{7}
7000 м н/о +13.6 +13.0 96 +13 +13 тепло 1030.0 1014.9 +13.5 +21.9 0
07 14.09 СВ 3 10 км н/о +14.8 +13.7 93 +14 +14 по сезону 1030.2 1015.2
08 14.09 СВ 3 18 км н/о +16.7 +14.3 86 +17 +17 тепло 1030.0 1015.1
09 14.09 СВ 3
{8}
18 км н/о +19.3 +14.8 75 +21 +21 комфорт 1029.6 1014.8 0
10 14.09 СВ 3 23 км н/о +21.9 +14.8 64 +25 +25 комфорт 1028.9 1014.2
11 14.09 СВ 4 27 км н/о +23.9 +14.6 56 +27 +27 жарко 1028.1 1013.5
12 14.09 СВ 3
{11}
28 км н/о +25.3 +14.1 50 +28 +28 жарко 1027.6 1013.1 0
13 14.09 СВ 3 35 км н/о +26.0 +13.8 47 +28 +28 жарко 1026.9 1012.5
14 14.09 СВ 3 45 км н/о +26.5 +13.3 44 +28 +28 жарко 1026.5 1012.1
15 14.09 В 3
{8}
50 км н/о +26.9 +12.9 42 +29 +29 жарко 1025.9 1011.5 0
16 14.09 СВ 4 55 км н/о +26.2 +13.0 44 +28 +28 жарко 1025.6 1011.2
17 14.09 В 2 60 км н/о +25.7 +13.2 46 +28 +28 жарко 1025.6 1011.2
18 14.09 В 2
{6}
60 км н/о +23.4 +13.0 52 +26 +26 жарко 1025.7 1011.1 +13.6 +27.4 0
19 14.09 СВ 2 60 км н/о +20.6 +12.8 61 +24 +24 комфорт 1026.0 1011.3
20 14.09 СВ 1 60 км н/о +18.7 +12.4 67 +21 +21 комфорт 1026.2 1011.4
21 14.09 СВ 1
{3}
60 км н/о +17.5 +12.0 70 +19 +19 тепло 1026.3 1011.4 0
22 14.09 СВ 1 60 км н/о +16.1 +11.0 72 +17 +17 тепло 1026.1 1011.2
23 14.09 СВ 1 60 км н/о +15.7 +10.9 73 +16 +16 тепло 1025.7 1010.8
00 15.09 СВ 1
{3}
60 км н/о +14.9 +10.7 76 +15 +15 тепло 1025.8 1010.8 0
01 15.09 СВ 1 55 км н/о +14.0 +10.6 80 +14 +14 тепло 1025.3 1010.3
02 15.09 СВ 1 45 км н/о +13.4 +10.6 83 +14 +14 тепло 1025.1 1010.0
03 15.09 С 1
{3}
40 км н/о +12.9 +10.1 83 +13 +13 тепло 1025.0 1009.9 0
04 15.09 С 1 30 км н/о +11.5 +9.4 87 +11 +11 тепло 1024.8 1009.6
05 15.09 С 2 26 км н/о +11.2 +9.6 90 +10 +10 тепло 1024.7 1009.5
06 15.09 СВ 1
{3}
19 км н/о +11.2 +9.1 87 +12 +12 тепло 1025.2 1010.0 +10.6 +23.3 0
07 15.09 СВ 1 23 км н/о +14.3 +10.5 78 +15 +15 тепло 1025.0 1010.0
08 15.09 СВ 2 30 км н/о +18.2 +11.7 66 +19 +19 тепло 1024.9 1010.1
09 15.09 СВ 2
{4}
50 км н/о +21.6 +11.9 54 +24 +24 комфорт 1025.0 1010.4 0
10 15.09 СВ 2 55 км н/о +24.2 +12.5 48 +26 +26 жарко 1024.7 1010.2
11 15.09 СВ 2 55 км н/о +25.4 +11.9 43 +27 +27 жарко 1024.0 1009.6
12 15.09 СВ 2
{7}
60 км н/о +26.6 +11.5 39 +28 +28 жарко 1023.5 1009.1 0
13 15.09 С 1 60 км н/о +28.0 +11.1 35 +29 +29 жарко 1022.6 1008.3
14 15.09 СВ 1 21 км н/о +28.2 +10.8 34 +29 +29 жарко 1022.0 1007.7
15 15.09 С 2
{8}
60 км н/о +28.9 +11.5 34 +30 +30 жарко 1021.4 1007.2 0
16 15.09 С 1 55 км н/о +28.3 +10.0 32 +29 +29 жарко 1020.9 1006.6
17 15.09 С 1 55 км н/о +27.6 +9.9 33 +28 +28 жарко 1020.7 1006.4
18 15.09 С 1
{4}
60 км н/о +25.0 +9.7 38 +26 +26 жарко 1021.0 1006.6 +11.2 +28.9 0
19 15.09 СВ 1 60 км н/о +20.9 +8.8 46 +24 +24 комфорт 1021.5 1006.9
20 15.09 СВ 1 60 км н/о +19.4 +8.7 50 +21 +21 комфорт 1021.9 1007.2
21 15.09 СВ 1
{4}
60 км н/о +18.4 +8.1 51 +20 +20 тепло 1022.2 1007.4 0
22 15.09 СВ 1 60 км н/о +16.4 +8.1 58 +17 +17 тепло 1022.2 1007.3
23 15.09 СВ 1 55 км н/о +15.6 +7.9 60 +16 +16 тепло 1022.0 1007.1
00 16.09 С 1
{4}
50 км н/о +13.6 +7.8 68 +14 +14 тепло 1022.2 1007.2 0
01 16.09 С 1 55 км н/о +12.7 +7.6 71 +13 +13 тепло 1022.3 1007.2
02 16.09 С 2 35 км н/о +12.3 +8.8 79 +11 +11 тепло 1021.9 1006.8
03 16.09 С 1
{4}
40 км н/о +12.1 +9.1 82 +12 +12 по сезону 1021.7 1006.6 0
04 16.09 С 2 30 км н/о +12.2 +9.4 83 +12 +12 тепло 1021.2 1006.1
05 16.09 штиль 0 27 км н/о +10.3 +8.2 87 +10 +10 тепло 1021.0 1005.8
06 16.09 СЗ 1 19 км н/о +10.4 +9.0 91 +11 +11 по сезону 1021.4 1006.2 +9.6 +24.9

 

Местоположение метеостанции Орлеан (Франция): широта 47.98 долгота 1.78 высота над уровнем моря 125 м.

В архиве по умолчанию представлена погода в Орлеане за последнюю неделю. Архивные данные за месяц целиком и за предыдущие месяцы, начиная с января 2011 года, Вы можете получить, выбрав интересующий диапазон дат из раскрывающегося списка и нажав кнопку "Ввод!".


*Определитесь, кто Вы:
робот инопланетянин человек

Внимание! Время в таблицах - всемирное. Для получения местного времени необходимо прибавить поправку, которая равна 1 ч.

Смотрите также архив погоды в соседних городах и на ближайших метеорологических станциях:

Погода в Шатодёне (Франция) (31 км)
Погода в Блуа (Франция) (53 км)
Погода в Шартре (Франция) (58 км)
Погода в Роморантен-Лантене (Франция) (74 км)
Погода в Трапе (Франция) (89 км)
Погода в Велизи-Вилакубле (Франция) (93 км)
Погода в Париж Орли аэропорту (Франция) (93 км)
Погода в Мелене (Франция) (97 км)
Погода в Туре (Франция) (98 км)
Погода в Тусю-ле-Нобле (Франция) (101 км)

Пояснения к столбцам:

Ветер - указаны скорость ветра в м/с - средняя за 10 мин, порывы в срок и между сроками (в фигурных скобках) и направление, откуда дует ветер: С - северный, СВ - северо-восточный, В - восточный, ЮВ - юго-восточный, Ю - южный, ЮЗ - юго-западный, З - западный, СЗ - северо-западный.
Видимость - горизонтальная дальность видимости в метрах или километрах. При видимости от 1 до 10 км при отсутствии осадков обычно наблюдается дымка, при ухудшении видимости до 1 км и менее - туман. В сухую погоду видимость может ухудшаться дымом, пылью или мглою.
Явления - указаны атмосферные явления, наблюдавшиеся в срок или в последний час перед сроком; фигурными скобками обозначены явления, наблюдавшиеся между сроками (за 1-3 часа до срока); квадратными скобками обозначены град или гололедные отложения с указанием их диаметра в мм.
Облачность - указаны через наклонную черту общая и нижняя облачность в баллах и высота нижней границы облаков в метрах; квадратными скобками обозначены формы облаков: Ci - перистые, Cs - перисто-слоистые, Cc - перисто-кучевые, Ac - высококучевые, As - высокослоистые, Sc - слоисто-кучевые, Ns - слоисто-дождевые, Cu - кучевые, Cb - кучево-дождевые. Подробнее классификацию облаков см. в Атласе облаков (PDF).
T - Температура воздуха - температура, измеренная на высоте 2 м над землей.
Td - Температура точки росы - температура, при понижении до которой содержащийся в воздухе водяной пар достигнет насыщения.
f - Относительная влажность воздуха - влажноcть воздуха, измеренная на высоте 2 м над землей.
Te - Эффективная температура - температура, которую ощущает одетый по сезону человек в тени. Характеристика душности погоды. При расчете учитывается влияние влажности воздуха и скорости ветра на теплоощущения человека.
Tes - Эффективная температура на солнце - температура, которую ощущает человек, с поправкой на солнечный нагрев. Характеристика знойности погоды. Зависит от высоты солнца над горизонтом, облачности и скорости ветра. Ночью, в пасмурную погоду, а также при ветре 12 м/с и более поправка равна нулю.
P - Атмосферное давление - приведенное к уровню моря атмосферное давление.
Po - Атмосферное давление - измеренное на уровне метеостанции атмосферное давление.
Tmin - Минимальная температура - минимум температуры воздуха на высоте 2 м над землей.
Tmax - Максимальная температура - максимум температуры воздуха на высоте 2 м над землей.
R - Количество осадков - Количество выпавших осадков за период времени, мм. При наведении курсора мыши на число - период времени, за который выпало указанное количество осадков.
R24 - Количество осадков - Количество выпавших осадков за 24 часа, мм.
S - Снежный покров - Высота снежного покрова, см. При наведении курсора мыши на число - состояние снежного покрова и степень покрытия местности в баллах.